sat.trackr.live / text

‹ back to catalog

STARLINK-36032

NORAD 66594 · 2025-270G

PAYLOAD ACTIVE UNKNOWN

§ Identity

Operator
Country
US
Launch date
2025-11-22
Launch site
AFETR
Launch vehicle
Mass (kg)
RCS (m²)

Purposes: comms

External: N2YO · Heavens-Above · Gunter

§ Orbital elements

Epoch: 2026-05-24T20:45:36.784512Z

Period
94.27 min
Inclination
43.0035°
Eccentricity
0.0002212
Mean motion
15.27597254 rev/d
Perigee alt
481.5 km
Apogee alt
484.5 km
Semi-major
6,861.1 km
B*
7.2580e-4
RAAN
346.1775°
Arg perigee
269.6685°
Mean anomaly
90.3914°
Rev number
2,916

§ Raw data

STARLINK-360321 66594U 25270G   26144.86500908  .00019775  00000+0  72580-3 0  99922 66594  43.0035 346.1775 0002212 269.6685  90.3914 15.27597254 29160

JSON: /api/v1/satellites/66594 · /tle

For live sub-satellite position, see the globe view (requires WebGL).

§ Visibility from observer

Set your observer location to see the next 7 days of passes ≥ 10°. The values pass through the URL so the page stays shareable.

No JS? Fill the form by hand. The geolocation button needs JavaScript.